OpenBCM V1.13 (Linux)

Packet Radio Mailbox

DB0FHN

[JN59NK Nuernberg]

 Login: GUEST





  
LU9DCE > KEP      05.08.19 20:33l 242 Lines 11923 Bytes #999 (0) @ WW
BID : 29516_LU9DCE
Read: DJ6UX GUEST
Subj: TLE 05 08
Path: DB0FHN<DB0BLO<DB0ERF<DB0RES<DB0OVN<DB0GOS<ON0AR<GB7CIP<N3HYM<KF5JRV<
      KE0GB<LU9HGS<LU9DCE
Sent: 190805/1821Z 29516@LU9DCE.TOR.BA.ARG.SOAM LinBPQ6.0.17

            __    _  _  ___  ____   ___  ____    ____  ____  ____
           (  )  / )( \/ _ \(    \ / __)(  __)  (  _ \(  _ \/ ___)
           / (_/\) \/ (\__  )) D (( (__  ) _)    ) _ ( ) _ (\___ \
           \____/\____/(___/(____/ \___)(____)  (____/(____/(____/
               ESTACION DE PACKET RADIO - BUENOS AIRES (GF05OM)
                   BOLETINES INFORMATIVOS PROGRAMADOS (BIP)
                  SLACKWARE LINUX - HELLOCODELINUX@GMAIL.COM
                          https://slacko.home.blog
+----------------------------------------------------------------------------+
OSCAR 7
1  7530U 74089B   19216.86673970 -.00000036 +00000-0 +56372-4 0  9995
2  7530 101.7472 184.0509 0011707 256.3724 157.3897 12.53639092046191
OSCAR 11 (UoSAT 2)
1 14781U 84021B   19216.92783756 +.00000032 +00000-0 +10055-4 0  9992
2 14781 097.6088 239.4068 0009071 155.3741 204.7909 14.83098522884762
OSCAR 19 (LUSAT)
1 20442U 90005G   19216.87221706 -.00000011 +00000-0 +12461-4 0  9999
2 20442 098.6501 158.7987 0012124 015.9963 344.1601 14.32929748543078
EYESAT A
1 22825U 93061C   19216.93726673 -.00000023 +00000-0 +92889-5 0  9997
2 22825 098.9056 206.6580 0007684 215.5601 144.5069 14.30063502348435
ITAMSAT
1 22826U 93061D   19216.92793088 -.00000010  00000-0  14222-4 0  9991
2 22826  98.8996 206.6340 0008385 203.8237 156.2557 14.30397360348902
RADIO ROSTO
1 23439U 94085A   19216.87679586 -.00000045 +00000-0 -77503-4 0  9999
2 23439 064.8178 039.8192 0146132 104.0507 257.6709 11.27568720013215
JAS 2
1 24278U 96046B   19217.09704709 -.00000038  00000-0 -57983-5 0  9994
2 24278  98.5439   4.0867 0351305 117.0374 246.7078 13.53093044134215
TECHSAT 1B
1 25397U 98043D   19216.84825406 -.00000013 +00000-0 +13356-4 0  9993
2 25397 098.6900 156.4258 0000179 218.5198 141.5968 14.23668423094367
ISS (ZARYA)
1 25544U 98067A   19217.22419023  .00000252  00000-0  12093-4 0  9991
2 25544  51.6447 117.9781 0006276 218.5519 278.7694 15.51024655182867
PCSAT
1 26931U 01043C   19216.83258840 -.00000058 +00000-0 +94193-5 0  9991
2 26931 067.0494 242.0342 0007382 275.2915 084.7344 14.30548514931717
SAUDISAT 1C
1 27607U 02058C   19216.65002061 -.00000049 +00000-0 +14063-4 0  9998
2 27607 064.5542 266.0278 0079603 247.5027 111.7634 14.75562460893837
CUTE-1
1 27844U 03031E   19216.93091088 +.00000012 +00000-0 +25142-4 0  9990
2 27844 098.6838 224.4376 0008629 252.5394 107.4841 14.22187932834966
CUBESAT XI 4
1 27848U 03031J   19216.93650507 +.00000006 +00000-0 +22582-4 0  9999
2 27848 098.6915 224.9534 0008492 265.7108 094.3099 14.21782047834825
MOZHAYETS 4
1 27939U 03042A   19217.39064837  .00000046  00000-0  16783-4 0  9998
2 27939  98.0481 352.2925 0011697 277.5457  82.4425 14.66793445847532
CUBESAT XI 5
1 28895U 05043F   19216.88336099 +.00000071 +00000-0 +22552-4 0  9997
2 28895 097.9656 358.0134 0016408 198.1145 161.9475 14.63679374734151
CUTE-1.7+APD II
1 32785U 08021C   19216.81483354 +.00000120 +00000-0 +18581-4 0  9991
2 32785 097.5507 214.3094 0014636 104.9209 255.3630 14.88326640610629
DELFI C3
1 32789U 08021G   19216.69512261 +.00000928 +00000-0 +65890-4 0  9992
2 32789 097.4610 264.9349 0011205 331.4526 028.6087 15.07027838613943
SEEDS
1 32791U 08021J   19216.68681831 +.00000293 +00000-0 +35046-4 0  9999
2 32791 097.5284 220.2079 0015020 082.4156 277.8769 14.90843970611037
YUBELEINY
1 32953U 08025A   19217.53250914  .00000020  00000-0  75656-4 0  9991
2 32953  82.5025 115.0187 0020215  26.5734 333.6375 12.43090686508255
PRISM (HITOMI)
1 33493U 09002B   19217.19698618  .00000789  00000-0  74561-4 0  9992
2 33493  98.1205 139.9534 0015890  31.1998 329.0162 14.96688843572258
KKS-1 (KISEKI)
1 33499U 09002H   19216.87520348 +.00000033 +00000-0 +12855-4 0  9996
2 33499 098.3480 057.0810 0010349 060.4332 299.7906 14.75452287565753
SWISSCUBE
1 35932U 09051B   19216.52431797 +.00000083 +00000-0 +29887-4 0  9993
2 35932 098.5924 023.8783 0008129 030.6000 329.5669 14.56297137523556
BEESAT
1 35933U 09051C   19216.45574680 +.00000067 +00000-0 +26168-4 0  9996
2 35933 098.5947 025.5869 0006613 044.7713 315.4017 14.56384777523614
ITUPSAT 1
1 35935U 09051E   19216.88412172 +.00000032 +00000-0 +18647-4 0  9997
2 35935 098.6058 026.2628 0008824 038.7353 321.4474 14.55542997523477
XIWANG-1 (HOPE-1)
1 36122U 09072B   19217.46665616 -.00000009  00000-0  86030-4 0  9993
2 36122 100.0734 217.6014 0006802 236.2310 123.8156 13.16350873463168
TISAT 1
1 36799U 10035E   19217.12540337  .00000209  00000-0  27228-4 0  9994
2 36799  98.1615  10.8661 0010964 292.7952  67.2107 14.91127567491835
JUGNU
1 37839U 11058B   19216.93702792  .00000295  00000-0  15622-4 0  9999
2 37839  19.9626  48.2745 0018878 127.8356  22.1197 14.12654905403948
SRMSAT
1 37841U 11058D   19217.12562201  .00000281  00000-0  95009-5 0  9996
2 37841  19.9725 104.8859 0011795 358.1502 156.4018 14.10635755403403
M-CUBED/EXP-1 PRIME
1 37855U 11061F   19216.98596478  .00000933  00000-0  54699-4 0  9994
2 37855 101.7105 136.8582 0173175 296.6726  61.6844 15.05515035423895
HORYU 2
1 38340U 12025D   19217.10603889  .00000088  00000-0  20878-4 0  9998
2 38340  98.3260 257.1113 0010876 339.6799  20.3975 14.75733867388158
STRAND 1
1 39090U 13009E   19217.54583044 -.00000014  00000-0  10290-4 0  9999
2 39090  98.4849  62.6922 0009833 140.6965 219.4936 14.35091768337254
SOMP
1 39134U 13015E   19217.44935980  .00000594  00000-0  36453-4 0  9995
2 39134  64.8613 225.7041 0033860 295.8248  63.9388 15.20226462347853
BEESAT 3
1 39135U 13015F   19216.86319238 +.00000388 +00000-0 +29092-4 0  9995
2 39135 064.8682 246.5677 0027775 311.3144 048.5592 15.17525061347010
BEESAT 2
1 39136U 13015G   19217.18171343  .00000203  00000-0  20274-4 0  9994
2 39136  64.8680 249.5018 0021530 301.0350  58.8661 15.16947788347372
CUBEBUG 1
1 39153U 13018D   19216.80062904 +.00000097 +00000-0 +19593-4 0  9999
2 39153 097.9802 314.6647 0017962 049.4873 310.7900 14.80579560338783
ZACUBE
1 39417U 13066B   19216.92784503 +.00000114 +00000-0 +20856-4 0  9998
2 39417 097.5620 227.7748 0057570 238.3400 121.2190 14.81131003308038
TRITON 1
1 39427U 13066M   19217.17318869  .00000190  00000-0  38255-4 0  9991
2 39427  97.6797 191.6254 0114278  14.2305 346.2075 14.67859111305309
GOMX 1
1 39430U 13066Q   19217.21001087  .00000104  00000-0  27430-4 0  9999
2 39430  97.7502 170.6419 0152463 104.2168 257.6025 14.59266145303536
HUMSAT D
1 39433U 13066T   19216.82169911 +.00000335 +00000-0 +37914-4 0  9993
2 39433 097.5503 262.3938 0031839 141.3163 219.0346 14.92218458310103
CUBEBUG 2
1 39440U 13066AA  19217.00644367  .00000125  00000-0  24655-4 0  9990
2 39440  97.6035 212.6535 0078773 291.7528  67.5312 14.75869222306955
FUNCUBE 1
1 39444U 13066AE  19216.90231262 +.00000154 +00000-0 +25344-4 0  9996
2 39444 097.5599 229.7422 0056780 231.9247 127.6838 14.81952791306339
UWE-3
1 39446U 13066AG  19216.92956788 +.00000116 +00000-0 +22244-4 0  9991
2 39446 097.5818 219.6557 0068421 265.8927 093.4463 14.78403702305655
SPROUT
1 39770U 14029E   19217.19462678  .00000314  00000-0  40818-4 0  9998
2 39770  97.8863 320.1841 0007986 294.5787  65.4603 14.87376519281893
UNISAT 6
1 40012U 14033C   19216.85537032 +.00000097 +00000-0 +22042-4 0  9990
2 40012 097.7519 081.4212 0057192 306.7356 052.8609 14.73991213275632
DUCHIFAT 1
1 40021U 14033M   19216.73398141 +.00000337 +00000-0 +40216-4 0  9993
2 40021 097.9229 141.4836 0011398 254.2564 105.7397 14.90652420278556
QB50P1
1 40025U 14033R   19217.34684251  .00000138  00000-0  20713-4 0  9994
2 40025  97.9042 136.9531 0010981 262.5003  97.4966 14.88960828278416
CHUBUSAT 1
1 40300U 14070C   19217.11998568  .00000418  00000-0  21175-4 0  9999
2 40300  97.3248 290.0987 0018677 248.3920 172.9496 15.22121248263236
NUDT-PHONESAT
1 40900U 15049B   19217.49080300  .00001259  00000-0  56628-4 0  9994
2 40900  97.4365 226.3572 0013639  24.5824 128.9302 15.22896965214930
ZDPS 2A
1 40901U 15049C   19217.54280079  .00000614  00000-0  33697-4 0  9991
2 40901  97.4595 222.6740 0014700  41.4106  57.6443 15.17770731214494
ZDPS 2B
1 40902U 15049D   19216.90742201 +.00000621 +00000-0 +34164-4 0  9999
2 40902 097.4543 219.5135 0014742 041.0066 020.2693 15.17600079214375
XW-2A
1 40903U 15049E   19217.48276657  .00001010  00000-0  25711-4 0  9992
2 40903  97.3340 260.5102 0012915 339.0068 137.1764 15.41959553217610
KAITUO 1A
1 40904U 15049F   19217.55229920  .00000407  00000-0  25015-4 0  9998
2 40904  97.4673 218.7416 0015869  46.6918 109.4057 15.15388304214244
OBJECT G
1 40905U 15049G   19217.52668497  .00000428  00000-0  26892-4 0  9999
2 40905  97.4713 216.2204 0016793  41.4605  72.7945 15.14314543214118
XW-2C
1 40906U 15049H   19217.40732633  .00000555  00000-0  32527-4 0  9994
2 40906  97.4683 218.6950 0015916  38.2930  95.6203 15.15707528214223
XW-2D
1 40907U 15049J   19216.84857956 +.00000243 +00000-0 +16153-4 0  9999
2 40907 097.4662 217.8241 0015270 038.3031 082.7680 15.15895124214159
LILACSAT 2
1 40908U 15049K   19217.52179672  .00000182  00000-0  13652-4 0  9991
2 40908  97.4797 217.2810 0017043  41.5977  77.9219 15.13821060214048
XW-2F
1 40910U 15049M   19217.08104134  .00000479  00000-0  27343-4 0  9997
2 40910  97.4620 220.1098 0015573  30.2357  11.2062 15.17344530214201
XW-2B
1 40911U 15049N   19217.48311964  .00000566  00000-0  33037-4 0  9997
2 40911  97.4682 219.1057 0015219  36.9052 114.6704 15.15827552214147
KAITUO 1B
1 40912U 15049P   19216.97630757  .00000606  00000-0  31553-4 0  9991
2 40912  97.4499 223.7158 0015422  13.7029  39.7140 15.19663092214490
TIANWANG 1C (TW-1C)
1 40926U 15051B   19217.10325610  .00006862  00000-0  98445-4 0  9997
2 40926  97.1321 263.2299 0008009 181.2609 234.8428 15.56425474217535
